Погода в Пресиденсия-Роке-Саэнс-Пенья

Аргентина     26°48′44″S   60°25′16″W
темп.,
°C
ветер,
м/с
пор.,
м/с
влажн.,
%
обл.,
%
осадки,
мм/ч
давл.,
гПа
погр.,
м
16 мая, вс
вс1600:00+18св23845 0.0 101854
03:00+16всв229214 0.0 101715
06:00+15всв1293100 0.0 101611
09:00+18всв23828 0.0 1018137
12:00+25вюв11540 0.0 1018796
15:00+27ююв21460 0.0 10151422
18:00+23юв3465100 0.0 101584
21:00+21вюв3765100 0.0 1017211
17 мая, пн
пн1700:00+20вюв267392 0.0 1018181
03:00+18юв248199 0.0 101877
06:00+18ююв237878 0.0 101887
09:00+19юв24772 0.0 1020173
12:00+24юв23550 0.0 1020952
15:00+26ююв22485 0.0 10171390
18:00+22юв22638 0.0 101729
21:00+18вюв367528 0.0 1018110
18 мая, вт
вт1800:00+17в388215 0.0 1019159
03:00+15в25885 0.0 101897
06:00+14в25928 0.0 1017105
09:00+17в37780 0.0 1018217
12:00+24в34515 0.0 1018792
15:00+26в33445 0.0 10141241
18:00+22в366070 0.0 1013108
21:00+18всв387275 0.0 1015164
19 мая, ср
ср1900:00+16всв3977100 0.0 1014194
03:00+15в3975100 0.0 1013212
06:00+17всв3106267 0.0 1011291
09:00+18в2860100 0.0 1014278
12:00+22всв4853100 0.1 1013469
15:00+21в375434 0.1 1010390
18:00+22в48612 0.0 1009324
21:00+18вюв3117415 0.0 1010261
20 мая, чт
чт2000:00+18вюв31072100 0.0 1009239
03:00+19в4116626 0.3 1008283
06:00+17вюв487697 0.5 1008182
09:00+18вюв25771 0.6 1010158
12:00+23в45680 1.4 1010488
15:00+27вюв44540 1.8 1007904
18:00+22юв61079100 0.0 1008484
21:00+19юв5119056 0.4 1010403